Location: Pallagorio
(39.3000°N, 16.9000°E)
Time: 18:15:05
(UTC+00:00)

Lacrosse 5 - Pass Details

Date: 24 January 2021
Orbit: 715 x 724 km, 57.0° (Epoch: 01 March)

Event Time Altitude Azimuth Distance (km) Brightness Sun altitude
Rises 17:30:19 0° 312° (NW) 3,120 5.7 -16.8°
Reaches altitude 10° 17:32:44 10° 308° (NW) 2,197 4.9 -17.2°
Maximum altitude 17:37:39 54° 232° (SW) 870 2.6 -18.2°
Drops below altitude 10° 17:42:33 10° 156° (SSE) 2,188 4.2 -19.1°
Sets 17:44:57 0° 152° (SSE) 3,106 5.0 -19.5°
Enters shadow 17:45:05 - 152° (SSE) 3,158 5.0 -19.6°
